Location: Bright Sky Observatory
(40.7821°N, 74.2425°W)
Time: 14:24:15
(UTC-04:00)

Amateur Radio Satellites - All Passes

Search period start: 02 August 2015 13:54
Search period end: 03 August 2015 13:54
Location: Bright Sky Observatory, 40.7821°N, 74.2425°W

Satellite Date Start Highest point End Downlink Frequencies (MHz)
Time Altitude Azimuth
ITUPSAT 1 02 Aug 14:02:58 14:06:53 25° 94° (E) 14:10:50 437.325
AO-7 02 Aug 14:12:12 14:18:02 22° 54° (NE) 14:24:09 29.400- 29.500
Gurwin Techsat 1B 02 Aug 14:25:29 14:30:46 78° 76° (ENE) 14:36:08 435.225
ITAMSAT 1 02 Aug 14:39:23 14:44:37 87° 252° (WSW) 14:49:53 435.822/435.867
Oscar 19 02 Aug 14:56:59 15:00:18 17° 270° (W) 15:03:26 437.125/150
BEESAT 02 Aug 14:57:35 15:02:24 87° 289° (WNW) 15:07:10 436.000
JAS-2 02 Aug 15:15:37 15:21:42 77° 74° (ENE) 15:28:43 435.910
SWISSCUBE 02 Aug 15:18:33 15:23:10 49° 288° (WNW) 15:27:44 437.505
DANDE 02 Aug 15:21:26 15:25:13 49° 79° (E) 15:30:17 436.750
Cosmos 2504 02 Aug 15:22:41 15:30:21 38° 273° (W) 15:37:59 435.465 / 435.565
KKS-1 02 Aug 15:26:31 15:30:28 31° 96° (E) 15:34:28 437.445
Cosmos 2491 02 Aug 15:29:36 15:31:09 10° 308° (NW) 15:31:57 435.465 / 435.565
HORYU 2 02 Aug 15:30:44 15:34:52 40° 71° (ENE) 15:39:05 437.375
CUSAT 1 02 Aug 15:30:53 15:35:13 80° 260° (W) 15:41:01 437.405
GONETS M04 02 Aug 15:36:26 15:41:14 16° 58° (ENE) 15:46:35
ITUPSAT 1 02 Aug 15:40:31 15:44:51 34° 290° (WNW) 15:49:05 437.325
AO-7 02 Aug 16:01:31 16:09:55 88° 253° (WSW) 16:18:21 29.400- 29.500
Gurwin Techsat 1B 02 Aug 16:09:04 16:11:28 13° 273° (W) 16:13:34 435.225
SO-50 02 Aug 16:19:33 16:21:39 13° 34° (NE) 16:23:53 436.795
MOZHAYETS 4 02 Aug 16:28:25 16:31:33 18° 91° (E) 16:34:48
STARS 02 Aug 16:31:58 16:36:25 84° 284° (WNW) 16:40:52 437.465
BEESAT 02 Aug 16:38:53 16:39:34 10° 300° (WNW) 16:39:59 436.000
KKS-1 02 Aug 17:03:20 17:06:59 25° 292° (WNW) 17:10:34 437.445
JAS-2 02 Aug 17:03:50 17:07:52 17° 276° (W) 17:11:50 435.910
Cubesat XI-IV 02 Aug 17:04:14 17:07:27 17° 62° (ENE) 17:10:53 437.490
DANDE 02 Aug 17:06:14 17:08:21 13° 265° (W) 17:10:28 436.750
HORYU 2 02 Aug 17:08:30 17:11:43 19° 268° (W) 17:14:48 437.375
PCSat 02 Aug 17:11:11 17:15:31 24° 47° (NE) 17:19:56 145.827
GONETS M04 02 Aug 17:31:04 17:39:50 80° 81° (E) 17:48:36
VERMONT LUNAR 02 Aug 17:48:50 17:51:35 28° 156° (SSE) 17:54:23 437.305
CUTE-I 02 Aug 17:57:26 18:02:33 48° 71° (ENE) 18:07:42 437.470
SO-50 02 Aug 17:58:17 18:03:14 65° 55° (NE) 18:08:03 436.795
AO-7 02 Aug 17:58:34 18:03:58 17° 272° (W) 18:08:53 29.400- 29.500
MOZHAYETS 4 02 Aug 18:04:37 18:09:00 43° 288° (WNW) 18:13:21
Cosmos 2499 02 Aug 18:07:43 18:15:39 38° 71° (ENE) 18:23:47 435.465 / 435.565
CUBESAT XI-V 02 Aug 18:26:12 18:30:05 27° 94° (E) 18:33:58 437.345
PHONESAT 2.4 02 Aug 18:30:34 18:31:13 10° 146° (SE) 18:31:59 2401.200-2431.200
Cubesat XI-IV 02 Aug 18:41:43 18:47:04 68° 258° (WSW) 18:52:26 437.490
PCSat 02 Aug 18:54:01 18:59:19 54° 246° (WSW) 19:04:34 145.827
BRITE-PL 02 Aug 19:05:00 19:08:24 23° 70° (ENE) 19:11:47 437.365/2234.400
GOMX 1 02 Aug 19:08:47 19:11:01 15° 66° (ENE) 19:13:24 467.674
VERMONT LUNAR 02 Aug 19:24:56 19:28:06 77° 173° (S) 19:31:17 437.305
GONETS M04 02 Aug 19:29:42 19:35:47 20° 279° (W) 19:41:27
STRAND 1 02 Aug 19:34:12 19:38:57 39° 97° (E) 19:43:44 437.568
CUTE-I 02 Aug 19:38:49 19:42:55 21° 268° (W) 19:46:53 437.470
SO-50 02 Aug 19:40:19 19:43:18 16° 251° (WSW) 19:46:02 436.795
ISS 02 Aug 19:42:06 19:43:53 14° 131° (SE) 19:45:44 145.825
HO-68 02 Aug 19:48:18 19:54:48 40° 65° (ENE) 20:01:24 435.675
COMPASS 1 02 Aug 19:53:36 19:55:45 14° 66° (ENE) 19:58:06 437.405
Cosmos 2499 02 Aug 20:00:41 20:09:05 51° 270° (W) 20:17:28 435.465 / 435.565
CUBESAT XI-V 02 Aug 20:03:29 20:07:30 29° 290° (WNW) 20:11:26 437.345
PHONESAT 2.4 02 Aug 20:05:20 20:08:39 40° 160° (SSE) 20:11:59 2401.200-2431.200
SEEDS 02 Aug 20:09:53 20:13:25 26° 70° (ENE) 20:17:02 437.485
CUTE 1.7 + AOD 2 02 Aug 20:15:03 20:18:58 37° 72° (ENE) 20:22:58 437.475
CINEMA 3 02 Aug 20:22:40 20:25:59 24° 69° (ENE) 20:29:27 145.822/145.860
CANX-2 02 Aug 20:23:27 20:27:36 52° 74° (ENE) 20:31:48 2200.000
RS-15 02 Aug 20:24:33 20:33:41 34° 107° (ESE) 20:43:21 29.354- 29.394
DOVE 4 02 Aug 20:24:53 20:28:57 60° 75° (ENE) 20:33:04 437.250
PRISM 02 Aug 20:25:26 20:29:32 68° 285° (WNW) 20:33:34 437.425
Oscar 11 02 Aug 20:27:39 20:29:41 13° 65° (ENE) 20:31:55 145.826/435.025
AAUSAT CUBESAT 2 02 Aug 20:31:50 20:35:30 30° 71° (ENE) 20:39:15 437.432
CUBEBUG 2 02 Aug 20:42:38 20:45:32 19° 67° (ENE) 20:48:38 437.445
BRITE-PL 02 Aug 20:43:06 20:46:54 28° 264° (W) 20:50:31 437.365/2234.400
GOMX 1 02 Aug 20:44:48 20:48:52 45° 261° (W) 20:52:53 467.674
VERMONT LUNAR 02 Aug 21:01:38 21:04:49 77° 187° (S) 21:07:59 437.305
STRAND 1 02 Aug 21:13:50 21:17:59 25° 294° (WNW) 21:22:01 437.568
ISS 02 Aug 21:16:46 21:20:00 62° 326° (NW) 21:23:14 145.825
COMPASS 1 02 Aug 21:26:55 21:31:02 51° 261° (W) 21:35:11 437.405
ZACube-1 02 Aug 21:30:52 21:34:44 37° 72° (ENE) 21:38:44 437.345
HO-68 02 Aug 21:35:55 21:42:33 39° 263° (W) 21:49:09 435.675
Cosmos 2491 02 Aug 21:39:21 21:43:22 14° 56° (NE) 21:47:57 435.465 / 435.565
DELFI C3 02 Aug 21:40:34 21:44:31 53° 74° (ENE) 21:48:31 145.870
AUBIESAT-1 02 Aug 21:42:44 21:45:06 14° 93° (E) 21:47:39 437.475
PHONESAT 2.4 02 Aug 21:42:58 21:46:29 86° 180° (S) 21:50:01 2401.200-2431.200
SEEDS 02 Aug 21:45:34 21:49:10 26° 266° (W) 21:52:42 437.485
FUNcube-1 02 Aug 21:51:26 21:55:34 63° 75° (ENE) 21:59:51 145.935
CUTE 1.7 + AOD 2 02 Aug 21:52:00 21:55:03 18° 269° (W) 21:57:59 437.475
UWE-3 02 Aug 21:58:22 22:02:34 80° 259° (W) 22:06:53 435.000/436.395/437.385
CINEMA 3 02 Aug 21:59:35 22:03:08 26° 266° (W) 22:06:42 145.822/145.860
Oscar 11 02 Aug 22:01:09 22:05:25 58° 260° (W) 22:09:44 145.826/435.025
CANX-2 02 Aug 22:01:43 22:03:54 13° 271° (W) 22:05:53 2200.000
HUMSAT D 02 Aug 22:03:12 22:06:57 35° 71° (ENE) 22:10:48 437.325/437.525
UKube-1 02 Aug 22:03:33 22:06:59 24° 68° (ENE) 22:10:29 .
DOVE 4 02 Aug 22:06:43 22:07:16 10° 272° (W) 22:07:32 437.250
AAUSAT CUBESAT 2 02 Aug 22:07:51 22:11:10 22° 267° (W) 22:14:23 437.432
AISAT 02 Aug 22:17:15 22:20:38 23° 68° (ENE) 22:24:08 437.250
CUBEBUG 2 02 Aug 22:18:07 22:22:00 36° 263° (W) 22:25:58 437.445
BEESAT 3 02 Aug 22:26:25 22:29:05 18° 112° (ESE) 22:31:54 437.485
AIST 1 02 Aug 22:26:36 22:29:43 20° 72° (ENE) 22:32:56
CUBEBUG 1 02 Aug 22:26:41 22:29:14 16° 66° (ENE) 22:31:57 437.445
DX 1 02 Aug 22:33:32 22:37:46 56° 73° (ENE) 22:42:02 434.975-435.025
RS-15 02 Aug 22:34:30 22:45:23 67° 308° (NW) 22:56:41 29.354- 29.394
VERMONT LUNAR 02 Aug 22:38:33 22:41:18 27° 204° (SSW) 22:44:02 437.305
UNISAT 6 02 Aug 22:47:39 22:51:35 26° 94° (E) 22:55:35 437.425
M-CUBED/EXP-1 PRIME 02 Aug 22:47:51 22:52:42 80° 109° (ESE) 22:57:20 437.505
VELOX 1 02 Aug 22:54:41 22:58:58 54° 73° (ENE) 23:03:18 145.980
ISS 02 Aug 22:54:46 22:56:57 16° 345° (NNW) 22:59:06 145.825
50 SAT 02 Aug 22:57:00 23:00:51 67° 76° (ENE) 23:04:47 437.505
ZACube-1 02 Aug 23:08:22 23:11:18 18° 269° (W) 23:14:09 437.345
DUCHIFAT 1 02 Aug 23:10:11 23:12:34 15° 91° (E) 23:15:08 145.980
ESTCUBE 1 02 Aug 23:13:24 23:17:52 61° 74° (ENE) 23:22:21 437.505/2401.250
QB50P1 02 Aug 23:14:32 23:17:22 18° 92° (E) 23:20:21 145.935-145.965
NANOSAT C BR1 02 Aug 23:15:00 23:17:50 18° 92° (E) 23:20:47 145.865
AUBIESAT-1 02 Aug 23:15:34 23:20:16 63° 291° (WNW) 23:24:48 437.475
DELFI C3 02 Aug 23:18:25 23:19:59 12° 271° (W) 23:21:19 145.870
PHONESAT 2.4 02 Aug 23:20:56 23:24:26 66° 194° (SSW) 23:27:55 2401.200-2431.200
BEESAT 2 02 Aug 23:25:28 23:29:29 59° 119° (ESE) 23:33:34 435.950
TIGRISAT 02 Aug 23:29:40 23:34:23 71° 102° (ESE) 23:39:05 435.000
FUNcube-1 02 Aug 23:31:27 23:32:27 10° 273° (W) 23:33:11 145.935
ANTELSAT 02 Aug 23:32:16 23:37:00 78° 102° (ESE) 23:41:44 437.575/2403.000
Cosmos 2491 02 Aug 23:33:29 23:42:13 73° 80° (E) 23:50:56 435.465 / 435.565
AIST 2 02 Aug 23:34:22 23:36:58 16° 111° (ESE) 23:39:43 435.215
UKube-1 02 Aug 23:39:11 23:43:00 30° 264° (W) 23:46:47 .
HUMSAT D 02 Aug 23:39:49 23:42:50 19° 268° (W) 23:45:45 437.325/437.525
AISAT 02 Aug 23:53:05 23:57:04 32° 263° (W) 00:01:02 437.250
YUBILEINY 02 Aug 23:53:55 00:01:53 44° 88° (E) 00:10:02 435.215
POLYITAN 1 02 Aug 23:57:36 00:01:49 55° 100° (E) 00:06:02 437.675
CUBEBUG 1 03 Aug 00:01:03 00:05:16 48° 261° (W) 00:09:28 437.445
BEESAT 3 03 Aug 00:02:51 00:06:44 42° 307° (NW) 00:10:39 437.485
AIST 1 03 Aug 00:03:40 00:07:28 31° 269° (W) 00:11:11
BUGSAT 1 03 Aug 00:08:11 00:12:04 42° 98° (E) 00:16:00 437.445
DX 1 03 Aug 00:12:24 00:14:26 13° 270° (W) 00:16:15 434.975-435.025
POPSAT HIP 1 03 Aug 00:13:51 00:18:09 84° 102° (ESE) 00:22:26 437.405
QB50P2 03 Aug 00:22:02 00:26:19 76° 284° (WNW) 00:30:35 145.880/145.840
UNISAT 6 03 Aug 00:24:11 00:28:21 32° 290° (WNW) 00:32:29 437.425
M-CUBED/EXP-1 PRIME 03 Aug 00:24:22 00:26:50 14° 303° (WNW) 00:29:04 437.505
BEESAT 03 Aug 00:29:25 00:31:09 12° 62° (ENE) 00:33:08 436.000
SPROUT 03 Aug 00:29:33 00:33:49 81° 257° (WSW) 00:38:07 437.525
ISS 03 Aug 00:32:49 00:34:23 13° 5° (N) 00:35:58 145.825
VELOX 1 03 Aug 00:33:38 00:35:55 13° 270° (W) 00:37:59 145.980
TISAT 1 03 Aug 00:33:54 00:38:03 69° 75° (ENE) 00:42:13 437.305
DUCHIFAT 1 03 Aug 00:44:35 00:48:39 45° 287° (WNW) 00:52:42 145.980
SWISSCUBE 03 Aug 00:48:22 00:51:48 20° 66° (ENE) 00:55:22 437.505
QB50P1 03 Aug 00:49:26 00:53:24 38° 288° (WNW) 00:57:21 145.935-145.965
NANOSAT C BR1 03 Aug 00:49:52 00:53:50 38° 288° (WNW) 00:57:47 145.865
RS-15 03 Aug 00:51:37 01:00:35 26° 338° (NNW) 01:09:39 29.354- 29.394
ESTCUBE 1 03 Aug 00:53:06 00:55:12 13° 271° (W) 00:57:04 437.505/2401.250
PHONESAT 2.4 03 Aug 00:59:19 01:02:05 21° 208° (SSW) 01:04:47 2401.200-2431.200
BEESAT 2 03 Aug 01:05:15 01:07:57 16° 318° (NW) 01:10:32 435.950
TIGRISAT 03 Aug 01:08:18 01:10:36 13° 296° (WNW) 01:12:41 435.000
ITUPSAT 1 03 Aug 01:09:33 01:13:38 29° 68° (ENE) 01:17:49 437.325
AIST 2 03 Aug 01:11:04 01:15:12 48° 307° (NW) 01:19:21 435.215
ANTELSAT 03 Aug 01:11:17 01:13:12 12° 297° (WNW) 01:14:54 437.575/2403.000
O/OREOS (USA 219) 03 Aug 01:24:44 01:29:09 67° 110° (ESE) 01:33:39 437.305
Oscar 19 03 Aug 01:28:05 01:31:50 21° 92° (E) 01:35:44 437.125/150
Cosmos 2491 03 Aug 01:31:48 01:38:20 23° 278° (W) 01:44:29 435.465 / 435.565
POLYITAN 1 03 Aug 01:35:03 01:37:19 14° 295° (WNW) 01:39:24 437.675
BUGSAT 1 03 Aug 01:44:42 01:47:15 16° 293° (WNW) 01:49:40 437.445
YUBILEINY 03 Aug 01:50:40 01:58:48 41° 288° (WNW) 02:06:53 435.215
Cosmos 2504 03 Aug 02:01:28 02:07:30 32° 85° (E) 02:14:04 435.465 / 435.565
BEESAT 03 Aug 02:03:37 02:08:24 80° 256° (WSW) 02:13:15 436.000
ISS 03 Aug 02:08:46 02:11:38 27° 25° (NNE) 02:14:31 145.825
KKS-1 03 Aug 02:24:37 02:28:21 28° 69° (ENE) 02:32:10 437.445
SWISSCUBE 03 Aug 02:24:47 02:29:23 44° 262° (W) 02:33:58 437.505
JAS-2 03 Aug 02:27:32 02:30:55 14° 82° (E) 02:34:51 435.910
Gurwin Techsat 1B 03 Aug 02:42:20 02:47:00 31° 95° (E) 02:51:44 435.225
ITUPSAT 1 03 Aug 02:47:14 02:51:29 30° 265° (W) 02:55:41 437.325
ITAMSAT 1 03 Aug 02:52:51 02:57:30 34° 96° (E) 03:02:11 435.822/435.867
Oscar 19 03 Aug 03:06:30 03:11:28 47° 289° (WNW) 03:16:26 437.125/150
O/OREOS (USA 219) 03 Aug 03:06:47 03:09:09 14° 309° (NW) 03:11:22 437.305
RS-15 03 Aug 03:10:03 03:18:23 22° 13° (NNE) 03:27:09 29.354- 29.394
STARS 03 Aug 03:28:20 03:32:42 83° 75° (ENE) 03:37:06 437.465
MOZHAYETS 4 03 Aug 03:30:28 03:33:32 18° 66° (ENE) 03:36:44
ISS 03 Aug 03:45:04 03:48:09 40° 222° (SW) 03:51:13 145.825
Cosmos 2504 03 Aug 03:52:34 03:59:26 46° 286° (WNW) 04:06:46 435.465 / 435.565
KKS-1 03 Aug 04:01:12 04:04:58 26° 265° (W) 04:08:40 437.445
AO-7 03 Aug 04:04:07 04:11:12 31° 95° (E) 04:18:27 29.400- 29.500
JAS-2 03 Aug 04:09:27 04:17:21 75° 102° (ESE) 04:25:02 435.910
Gurwin Techsat 1B 03 Aug 04:22:16 04:26:59 33° 292° (WNW) 04:31:38 435.225
ITAMSAT 1 03 Aug 04:32:28 04:36:57 29° 293° (WNW) 04:41:20 435.822/435.867
DANDE 03 Aug 04:34:55 04:38:03 63° 99° (E) 04:40:44 436.750
GONETS M04 03 Aug 04:39:09 04:44:10 18° 79° (E) 04:49:40
CUSAT 1 03 Aug 04:40:24 04:43:07 45° 281° (W) 04:45:38 437.405
HORYU 2 03 Aug 04:58:12 05:02:45 85° 105° (ESE) 05:07:15 437.375
MOZHAYETS 4 03 Aug 05:05:57 05:10:25 47° 262° (W) 05:14:56
RS-15 03 Aug 05:23:34 05:34:44 49° 44° (NE) 05:46:26 29.354- 29.394
CUBESAT XI-V 03 Aug 05:29:27 05:33:17 26° 69° (ENE) 05:37:12 437.345
JAS-2 03 Aug 05:55:31 06:01:42 25° 299° (WNW) 06:07:36 435.910
AO-7 03 Aug 05:56:19 06:04:28 58° 294° (WNW) 06:12:30 29.400- 29.500
CUTE-I 03 Aug 06:15:41 06:19:19 19° 91° (E) 06:23:08 437.470
GONETS M04 03 Aug 06:31:15 06:39:58 88° 278° (W) 06:48:43
HORYU 2 03 Aug 06:38:00 06:38:46 10° 298° (WNW) 06:39:17 437.375
BEESAT 3 03 Aug 06:44:56 06:46:51 13° 40° (NE) 06:48:53 437.485
Cosmos 2499 03 Aug 06:45:31 06:51:17 26° 83° (E) 06:57:39 435.465 / 435.565
STRAND 1 03 Aug 06:49:40 06:54:40 56° 73° (ENE) 06:59:43 437.568
Cubesat XI-IV 03 Aug 06:59:20 07:04:29 49° 99° (E) 07:09:38 437.490
CUBESAT XI-V 03 Aug 07:06:28 07:10:39 31° 265° (W) 07:14:46 437.345
PRISM 03 Aug 07:14:42 07:18:53 83° 76° (ENE) 07:23:05 437.425
RS-15 03 Aug 07:36:10 07:47:38 57° 246° (WSW) 07:59:21 29.354- 29.394
BEESAT 2 03 Aug 07:44:52 07:48:36 34° 50° (NE) 07:52:18 435.950
AO-7 03 Aug 07:51:55 07:55:40 13° 314° (NW) 07:58:58 29.400- 29.500
PCSat 03 Aug 07:53:42 07:57:26 20° 107° (ESE) 08:01:21 145.827
CUTE-I 03 Aug 07:54:36 07:59:47 53° 289° (WNW) 08:04:55 437.470
AIST 2 03 Aug 07:55:51 07:57:54 13° 39° (NE) 08:00:03 435.215
M-CUBED/EXP-1 PRIME 03 Aug 08:04:28 08:05:23 11° 55° (NE) 08:06:32 437.505
SO-50 03 Aug 08:13:17 08:16:52 22° 112° (ESE) 08:20:39 436.795
BEESAT 3 03 Aug 08:21:18 08:25:21 78° 239° (WSW) 08:29:19 437.485
DOVE 4 03 Aug 08:24:06 08:27:16 18° 92° (E) 08:30:43 437.250
AUBIESAT-1 03 Aug 08:29:39 08:32:19 17° 59° (ENE) 08:35:14 437.475
STRAND 1 03 Aug 08:30:53 08:34:18 17° 270° (W) 08:37:31 437.568
GONETS M04 03 Aug 08:32:29 08:38:20 18° 300° (WNW) 08:43:44
Cosmos 2499 03 Aug 08:36:32 08:43:52 59° 283° (WNW) 08:51:48 435.465 / 435.565
Cubesat XI-IV 03 Aug 08:40:14 08:44:17 22° 295° (WNW) 08:48:11 437.490
GOMX 1 03 Aug 08:45:34 08:50:01 47° 99° (E) 08:54:46 467.674
BRITE-PL 03 Aug 08:46:12 08:50:40 82° 102° (ESE) 08:55:28 437.365/2234.400
HO-68 03 Aug 09:03:12 09:09:56 42° 98° (E) 09:16:42 435.675
COMPASS 1 03 Aug 09:10:54 09:14:22 25° 94° (E) 09:17:52 437.405
BEESAT 2 03 Aug 09:23:17 09:26:29 22° 247° (WSW) 09:29:32 435.950
SEEDS 03 Aug 09:29:16 09:33:26 52° 99° (E) 09:37:35 437.485
AIST 2 03 Aug 09:32:52 09:37:04 81° 241° (WSW) 09:41:11 435.215
PCSat 03 Aug 09:35:08 09:40:28 56° 304° (WNW) 09:45:49 145.827
M-CUBED/EXP-1 PRIME 03 Aug 09:35:21 09:39:26 86° 252° (WSW) 09:43:54 437.505
CUTE 1.7 + AOD 2 03 Aug 09:35:49 09:40:08 78° 102° (ESE) 09:44:24 437.475
FUNcube-1 03 Aug 09:41:28 09:43:36 13° 89° (E) 09:45:58 145.935
CANX-2 03 Aug 09:44:35 09:48:54 74° 284° (WNW) 09:53:10 2200.000
UNISAT 6 03 Aug 09:46:55 09:50:14 22° 67° (ENE) 09:53:44 437.425
UWE-3 03 Aug 09:48:47 09:52:21 22° 93° (E) 09:56:04 435.000/436.395/437.385
Oscar 11 03 Aug 09:49:08 09:52:44 25° 94° (E) 09:56:22 145.826/435.025
AAUSAT CUBESAT 2 03 Aug 09:49:48 09:53:57 59° 100° (E) 09:58:04 437.432
SO-50 03 Aug 09:52:31 09:57:08 46° 309° (NW) 10:01:52 436.795
CINEMA 3 03 Aug 09:53:01 09:57:46 68° 102° (ESE) 10:02:39 145.822/145.860
O/OREOS (USA 219) 03 Aug 09:57:04 09:59:30 14° 51° (NE) 10:02:06 437.305
DOVE 4 03 Aug 10:00:47 10:05:16 47° 286° (WNW) 10:09:58 437.250
AUBIESAT-1 03 Aug 10:02:37 10:06:36 49° 256° (WSW) 10:10:55 437.475
DUCHIFAT 1 03 Aug 10:03:42 10:05:03 12° 64° (ENE) 10:06:37 145.980
YUBILEINY 03 Aug 10:04:43 10:10:53 21° 62° (ENE) 10:17:24 435.215
QB50P1 03 Aug 10:08:04 10:10:07 14° 65° (ENE) 10:12:21 145.935-145.965
NANOSAT C BR1 03 Aug 10:08:21 10:10:21 14° 65° (ENE) 10:12:33 145.865
CUBEBUG 2 03 Aug 10:08:35 10:13:04 46° 98° (E) 10:17:38 437.445
GOMX 1 03 Aug 10:24:43 10:27:54 18° 292° (WNW) 10:31:04 467.674
BRITE-PL 03 Aug 10:28:00 10:28:47 10° 296° (WNW) 10:29:17 437.365/2234.400
TIGRISAT 03 Aug 10:28:09 10:32:24 58° 74° (ENE) 10:36:48 435.000
ANTELSAT 03 Aug 10:30:56 10:35:14 65° 75° (ENE) 10:39:41 437.575/2403.000
Cosmos 2491 03 Aug 10:42:27 10:46:48 16° 78° (ENE) 10:51:44 435.465 / 435.565
COMPASS 1 03 Aug 10:46:24 10:50:00 27° 290° (WNW) 10:53:30 437.405
VELOX 1 03 Aug 10:48:28 10:48:50 10° 88° (E) 10:49:31 145.980
POLYITAN 1 03 Aug 10:50:21 10:54:15 39° 72° (ENE) 10:58:13 437.675
HO-68 03 Aug 10:51:04 10:57:37 38° 295° (WNW) 11:04:04 435.675
DELFI C3 03 Aug 10:54:33 10:58:38 85° 284° (WNW) 11:02:40 145.870
ZACube-1 03 Aug 10:55:09 10:59:45 86° 103° (ESE) 11:04:21 437.345
AIST 1 03 Aug 10:57:33 10:59:11 12° 86° (E) 11:01:03
BUGSAT 1 03 Aug 10:58:16 11:01:43 28° 70° (ENE) 11:05:13 437.445
POPSAT HIP 1 03 Aug 11:06:11 11:10:18 59° 74° (ENE) 11:14:28 437.405
SEEDS 03 Aug 11:06:28 11:08:50 14° 295° (WNW) 11:11:01 437.485
ESTCUBE 1 03 Aug 11:08:13 11:10:07 13° 89° (E) 11:12:15 437.505/2401.250
QB50P2 03 Aug 11:14:24 11:18:35 77° 76° (ENE) 11:22:49 145.880/145.840
CUTE 1.7 + AOD 2 03 Aug 11:15:13 11:15:28 10° 297° (WNW) 11:15:29 437.475
FUNcube-1 03 Aug 11:15:51 11:20:20 59° 286° (WNW) 11:24:50 145.935
HUMSAT D 03 Aug 11:22:21 11:26:42 71° 101° (E) 11:31:01 437.325/437.525
UNISAT 6 03 Aug 11:22:51 11:26:50 34° 264° (W) 11:30:54 437.425
PCSat 03 Aug 11:23:30 11:25:12 11° 325° (NW) 11:26:39 145.827
UWE-3 03 Aug 11:24:44 11:28:58 36° 289° (WNW) 11:33:14 435.000/436.395/437.385
Oscar 11 03 Aug 11:25:07 11:28:53 28° 290° (WNW) 11:32:34 145.826/435.025
UKube-1 03 Aug 11:26:15 11:30:23 43° 99° (E) 11:34:30 .
AAUSAT CUBESAT 2 03 Aug 11:27:14 11:29:06 12° 295° (WNW) 11:30:47 437.432
CINEMA 3 03 Aug 11:31:57 11:34:30 14° 295° (WNW) 11:36:54 145.822/145.860
O/OREOS (USA 219) 03 Aug 11:34:54 11:39:28 66° 251° (WSW) 11:44:02 437.305
DUCHIFAT 1 03 Aug 11:36:14 11:40:23 63° 259° (W) 11:44:32 145.980
QB50P1 03 Aug 11:41:28 11:45:34 52° 260° (W) 11:49:42 145.935-145.965
NANOSAT C BR1 03 Aug 11:41:41 11:45:47 53° 260° (W) 11:49:55 145.865
AISAT 03 Aug 11:43:22 11:47:37 45° 99° (E) 11:51:52 437.250
CUBEBUG 2 03 Aug 11:46:06 11:49:27 19° 293° (WNW) 11:52:42 437.445
Cosmos 2504 03 Aug 11:49:58 11:51:31 11° 54° (NE) 11:53:48 435.465 / 435.565
CUBEBUG 1 03 Aug 11:50:11 11:53:59 30° 96° (E) 11:57:49 437.445
DX 1 03 Aug 11:58:01 12:02:22 74° 284° (WNW) 12:06:41 434.975-435.025
YUBILEINY 03 Aug 12:00:07 12:08:59 83° 264° (W) 12:17:49 435.215
50 SAT 03 Aug 12:06:53 12:10:52 76° 285° (WNW) 12:14:49 437.505
TIGRISAT 03 Aug 12:07:41 12:09:39 12° 272° (W) 12:11:25 435.000
ANTELSAT 03 Aug 12:11:11 12:12:36 11° 273° (W) 12:13:46 437.575/2403.000
SPROUT 03 Aug 12:17:21 12:20:14 18° 92° (E) 12:23:15 437.525
TISAT 1 03 Aug 12:20:59 12:22:01 11° 88° (E) 12:23:18 437.305
VELOX 1 03 Aug 12:21:33 12:25:57 70° 286° (WNW) 12:30:21 145.980
POLYITAN 1 03 Aug 12:27:35 12:30:22 17° 269° (W) 12:33:01 437.675
AIST 1 03 Aug 12:32:09 12:36:24 53° 281° (W) 12:40:40
Cosmos 2491 03 Aug 12:33:44 12:42:31 84° 95° (E) 12:51:17 435.465 / 435.565
BUGSAT 1 03 Aug 12:34:04 12:37:13 21° 266° (W) 12:40:18 437.445
ZACube-1 03 Aug 12:34:41 12:35:30 10° 297° (WNW) 12:36:02 437.345
ESTCUBE 1 03 Aug 12:43:01 12:47:26 58° 287° (WNW) 12:51:49 437.505/2401.250
Oscar 19 03 Aug 12:44:37 12:48:57 29° 68° (ENE) 12:53:24 437.125/150
POPSAT HIP 1 03 Aug 12:45:16 12:46:38 11° 272° (W) 12:47:45 437.405
HUMSAT D 03 Aug 13:00:24 13:01:54 11° 296° (WNW) 13:03:11 437.325/437.525
UKube-1 03 Aug 13:03:19 13:06:13 17° 294° (WNW) 13:08:57 .
AISAT 03 Aug 13:20:55 13:23:52 17° 294° (WNW) 13:26:40 437.250
CUBEBUG 1 03 Aug 13:26:43 13:30:14 24° 291° (WNW) 13:33:39 437.445
